Lid_Strength_Index
1 1 1 1 2 2 2 2 2 3 3 3 3 4 4 5 5 7 11 9 12 15 14 13 13 15 15 16 19 16 17 19 22 24 24 24 25 21 23 21 21 20 23 16 22 24 23 12 11 15 15 15 17 17
1 1 1 1 1 1 1 1 2 2 3 3 3 3 3 5 5 6 12 9 9 13 14 12 12 11 12 12 14 14 15 18 17 22 21 20 23 20 23 23 14 19 14 18 16 18 11 13 12 12 15 16 15 13
1 2 2 1 1 1 1 1 0 1 1 2 2 3 3 4 5 7 11 10 12 14 14 14 14 11 10 10 9 15 14 13 16 15 18 18 22 17 23 20 16 13 11 14 14 13 14 12 10 11 12 11 10 10
2 2 2 2 1 1 1 1 1 1 1 2 3 3 3 5 5 7 11 11 12 13 18 17 13 13 11 10 10 10 12 14 14 14 16 17 21 14 16 14 15 12 11 13 13 11 10 10 9 10 11 12 11 11
2 2 2 2 2 1 1 1 1 1 1 2 3 3 4 5 5 8 10 10 10 13 17 16 14 13 14 13 12 12 12 14 16 17 16 17 14 14 13 14 14 11 13 15 15 10 11 11 10 10 12 12 12 12
4 3 3 3 3 2 2 2 1 1 1 2 3 5 5 6 8 11 14 10 9 10 15 20 15 16 16 15 14 14 13 14 14 15 15 13 10 12 16 19 11 9 9 9 11 11 11 11 11 12 13 13 13 14
4 4 3 3 3 2 2 2 1 1 2 3 4 5 5 6 10 13 14 11 9 10 15 21 20 16 18 19 18 17 16 14 14 15 15 14 12 11 15 17 12 10 10 11 11 13 12 12 14 14 14 15 16 17
4 4 3 3 3 3 2 2 1 1 3 5 5 6 7 8 9 12 10 8 9 12 14 21 19 17 17 19 19 16 16 16 15 18 15 16 12 11 16 12 11 12 13 13 13 14 14 14 15 15 16 17 18 17
4 4 4 3 3 2 2 1 1 3 4 5 6 8 11 12 15 14 10 8 10 12 18 18 20 20 16 17 17 18 17 19 17 18 16 16 17 16 14 12 13 14 15 16 16 17 18 19 18 19 20 21 21 20
4 4 4 3 2 2 1 2 4 5 6 7 10 15 18 15 10 11 14 15 15 14 15 18 16 19 16 17 19 20 18 19 21 19 18 19 19 15 14 16 15 15 16 18 21 19 21 22 22 22 22 21 22 21
3 4 3 3 2 2 2 5 6 7 8 13 16 18 15 11 14 16 19 21 19 21 18 18 17 19 16 20 20 18 20 20 24 22 20 19 20 15 17 19 19 18 19 21 22 22 23 22 23 23 23 24 24 23
3 3 3 3 2 2 5 6 7 10 13 13 14 14 15 17 18 21 22 20 19 21 18 18 18 18 17 16 19 20 22 22 24 20 21 23 16 18 20 20 19 20 22 23 24 23 23 22 25 23 23 24 23 22
3 3 3 2 2 4 5 7 8 9 11 13 16 19 19 21 23 26 26 22 20 18 19 19 20 18 19 18 20 20 23 23 22 22 22 18 18 21 21 19 20 22 23 25 26 26 27 28 25 26 26 24 22 21
2 2 2 2 5 5 7 8 9 11 14 18 20 25 22 24 23 22 20 19 17 18 18 18 20 21 19 21 20 23 22 23 23 24 23 20 22 20 18 18 21 22 25 27 27 28 29 30 30 29 29 30 29 27
2 2 4 5 6 7 8 9 11 13 16 20 19 23 24 22 21 21 19 18 19 17 18 20 21 19 22 22 21 22 24 26 21 22 19 19 19 16 16 18 20 23 27 29 28 29 29 30 31 30 30 31 31 31
5 6 8 6 7 8 9 11 13 15 17 19 20 23 23 19 21 20 19 19 19 19 19 19 23 25 25 24 23 25 23 23 20 21 17 19 18 16 17 18 21 25 28 28 28 29 29 30 30 29 29 30 30 30
6 9 6 7 8 8 10 14 15 18 19 19 21 19 18 17 19 18 18 19 18 19 22 22 27 25 23 25 24 22 23 21 18 19 19 21 20 18 18 19 22 24 25 28 30 30 29 29 30 30 28 27 28 28
8 7 7 8 10 11 15 14 16 17 19 20 19 20 19 18 18 19 20 20 19 21 22 24 22 26 26 26 26 20 18 16 17 19 18 18 18 20 20 22 23 24 26 28 30 30 30 29 27 26 28 27 25 27
7 8 7 7 9 12 15 16 16 19 20 19 20 19 19 20 22 22 23 23 23 22 21 24 28 29 26 24 24 25 23 19 20 18 18 19 19 20 21 21 23 24 26 28 29 28 28 28 28 28 26 26 25 24
5 5 6 7 8 13 16 17 16 17 19 20 20 20 20 22 24 26 26 25 24 25 25 24 25 25 23 24 24 24 24 24 24 22 19 18 19 19 20 22 22 24 25 27 28 28 28 26 26 26 25 25 26 24
7 7 7 10 13 15 17 18 19 20 20 21 22 20 22 24 25 26 27 25 24 25 27 24 25 30 31 30 28 27 25 23 25 23 21 19 19 20 21 22 23 25 27 28 28 27 26 27 26 25 25 24 24 24
8 7 10 10 14 16 19 21 20 21 20 23 22 23 24 26 27 28 26 27 25 25 28 29 30 31 32 31 31 29 28 27 27 22 21 22 21 20 21 23 25 27 28 28 29 29 27 24 25 25 24 24 24 26
6 8 11 12 17 19 24 21 23 23 23 25 25 26 28 29 28 26 29 26 28 33 34 34 34 34 32 32 31 30 29 27 26 23 23 22 23 22 23 25 26 28 30 29 29 29 26 24 23 24 24 25 26 26
8 13 15 17 20 26 23 24 22 25 26 27 28 29 30 30 27 29 29 29 32 33 33 34 34 32 31 31 30 28 27 25 24 23 24 24 23 24 26 27 28 30 30 30 29 27 25 25 22 24 26 28 28 27
12 17 16 21 22 23 25 24 24 24 27 29 29 30 30 29 30 30 30 30 32 33 32 34 32 30 28 25 23 25 25 25 25 25 25 24 24 25 28 30 30 29 30 30 29 29 27 25 26 27 28 28 28 27
18 23 24 26 24 24 23 26 26 27 31 32 31 31 30 29 31 30 29 30 32 32 32 31 30 29 28 26 26 25 26 26 26 26 25 26 28 28 28 28 29 28 30 29 29 30 28 27 29 29 28 27 26 28
23 26 28 26 24 24 26 28 29 29 32 30 31 31 31 32 31 28 30 28 28 30 30 30 29 29 29 28 27 27 27 26 26 27 28 29 28 28 29 30 29 28 30 29 29 29 29 29 28 28 27 26 28 27
25 26 23 26 26 27 28 30 31 29 28 28 27 29 30 28 26 25 24 25 28 30 30 30 30 30 29 28 27 28 28 28 29 29 30 30 31 31 31 31 31 21 28 30 28 28 28 27 27 27 28 25 23 24
28 28 23 28 29 29 29 28 27 29 29 27 26 28 28 28 25 25 26 27 30 31 31 30 30 29 29 29 29 29 29 29 30 31 31 31 31 29 32 31 31 31 30 29 24 19 23 23 25 26 26 25 23 23
29 31 28 32 28 29 30 32 32 32 31 30 28 27 27 29 30 32 31 32 31 31 30 29 28 28 27 28 29 31 32 33 33 31 31 31 30 31 32 32 31 30 29 29 27 26 21 26 25 27 26 24 22 20
32 31 31 33 34 33 33 32 31 31 31 31 31 28 28 29 30 31 30 30 30 29 28 28 28 29 31 32 33 33 32 32 32 32 33 33 32 32 32 31 30 30 30 30 29 29 29 29 29 29 25 22 20 19
31 32 30 33 33 31 31 32 32 31 31 30 30 28 27 26 26 27 28 28 28 29 28 29 31 31 32 33 33 34 29 32 31 31 30 31 31 31 31 31 31 31 31 30 31 31 31 31 29 26 23 21 20 19
29 31 32 33 32 32 30 30 29 28 28 29 29 28 26 26 24 27 27 27 28 29 30 30 31 31 32 33 33 33 29 31 29 21 21 21 25 26 31 31 31 31 31 31 31 31 30 30 26 23 21 21 20 19